Marion, OH

4:16 PM EDT on September 26, 2016 (GMT -0400)
Marion Municipal

Weather History for KMNN - February, 2014

Change the Weather History Date:

Friday, February 21, 2014

  Actual Average (KDLZ) Record (KDLZ)
Temperature  
Mean Temperature 44 °F -  
Max Temperature 55 °F 40 °F 64 °F (1937)
Min Temperature 32 °F 21 °F -6 °F (1978)
Degree Days  
Heating Degree Days 20    
Moisture  
Dew Point 30 °F    
Average Humidity 70    
Maximum Humidity 93    
Minimum Humidity 46    
Precipitation  
Precipitation 0.36 in - - ()
Sea Level Pressure  
Sea Level Pressure 29.72 in    
Wind  
Wind Speed 18 mph (WSW)    
Max Wind Speed 30 mph    
Max Gust Speed 40 mph    
Visibility 8 miles    
Events Rain    
Averages and records for this station are not official NWS values.
T = Trace of Precipitation, MM = Missing Value Source: NWS Daily Summary

Daily Weather History Graph

Daily Weather History Graph

Search for Another Location

Airport or City:

Trip Planner

Search our weather history database for the weather conditions in past years. The results will help you decide how hot, cold, wet, or windy it might be!

Date:

Astronomy

Feb. 21, 2014 Rise Set
Actual Time 7:17 AM EST 6:14 PM EST
Civil Twilight 6:50 AM EST 6:42 PM EST
Nautical Twilight 6:18 AM EST 7:13 PM EST
Astronomical Twilight 5:46 AM EST 7:45 PM EST
Moon 12:08 AM EST (2/21) 10:39 AM EST (2/21)
Length of Visible Light 11h 52m
Length of Day
10h 56m
Waning Gibbous, 61% of the Moon is Illuminated
Feb 21
Waning Gibbous
Feb 22
Last Quarter
Mar 1
New
Mar 8
First Quarter
Mar 16
Full

Hourly Weather History & Observations

Time (EST) Temp. Windchill Dew Point Humidity Pressure Visibility Wind Dir Wind Speed Gust Speed Precip Events Conditions
12:38 AM 55.0 °F - 53.1 °F 93% 29.51 in 2.5 mi SW 21.9 mph 32.2 mph 0.11 in Rain Heavy Rain
12:53 AM 50.0 °F - 48.0 °F 93% 29.54 in 2.5 mi West 17.3 mph 29.9 mph 0.19 in Rain Rain
12:56 AM 50.0 °F - 46.9 °F 89% 29.53 in 2.5 mi West 17.3 mph 29.9 mph 0.01 in Rain Rain
1:07 AM 48.0 °F - 46.0 °F 93% 29.52 in 2.0 mi West 15.0 mph - 0.10 in Rain Heavy Rain
1:20 AM 46.9 °F - 45.0 °F 93% 29.51 in 3.0 mi WNW 13.8 mph - 0.16 in Rain Rain
1:53 AM 43.0 °F 36.8 °F 37.0 °F 80% 29.57 in 10.0 mi West 11.5 mph 28.8 mph 0.16 in   Overcast
2:50 AM 37.4 °F 29.8 °F 33.8 °F 87% 29.61 in 6.0 mi West 11.5 mph - 0.01 in Rain Light Rain
2:53 AM 37.9 °F 29.6 °F 34.0 °F 86% 29.63 in 6.0 mi West 13.8 mph 24.2 mph 0.01 in Rain Light Rain
3:09 AM 37.9 °F 29.6 °F 33.1 °F 83% 29.61 in 8.0 mi West 13.8 mph 23.0 mph 0.00 in   Overcast
3:24 AM 37.0 °F 28.1 °F 32.0 °F 82% 29.62 in 10.0 mi West 15.0 mph - 0.00 in   Mostly Cloudy
3:53 AM 37.0 °F 28.1 °F 30.9 °F 79% 29.63 in 10.0 mi WSW 15.0 mph 20.7 mph 0.00 in   Overcast
4:53 AM 36.0 °F 26.3 °F 30.9 °F 82% 29.66 in 10.0 mi SW 16.1 mph 23.0 mph N/A   Overcast
5:53 AM 36.0 °F 25.6 °F 30.0 °F 79% 29.68 in 10.0 mi SW 18.4 mph - N/A   Mostly Cloudy
6:53 AM 36.0 °F 26.0 °F 28.9 °F 76% 29.68 in 10.0 mi SW 17.3 mph 25.3 mph N/A   Mostly Cloudy
7:53 AM 36.0 °F 26.0 °F 28.0 °F 73% 29.69 in 10.0 mi SW 17.3 mph 26.5 mph N/A   Mostly Cloudy
8:53 AM 37.0 °F 27.4 °F 28.9 °F 73% 29.71 in 10.0 mi SW 17.3 mph 28.8 mph N/A   Clear
9:53 AM 39.0 °F 28.3 °F 30.0 °F 70% 29.71 in 10.0 mi SW 24.2 mph 33.4 mph N/A   Mostly Cloudy
10:53 AM 37.9 °F 26.3 °F 27.0 °F 65% 29.72 in 10.0 mi SW 26.5 mph 39.1 mph N/A   Overcast
11:53 AM 37.0 °F 25.6 °F 25.0 °F 62% 29.75 in 10.0 mi SW 24.2 mph 34.5 mph N/A   Overcast
12:53 PM 39.0 °F 27.2 °F 25.0 °F 57% 29.74 in 10.0 mi SW 29.9 mph 40.3 mph N/A   Partly Cloudy
1:53 PM 39.0 °F 28.8 °F 23.0 °F 53% 29.76 in 10.0 mi West 21.9 mph 38.0 mph N/A   Mostly Cloudy
2:53 PM 39.0 °F 29.0 °F 25.0 °F 57% 29.78 in 10.0 mi WSW 20.7 mph 28.8 mph N/A   Mostly Cloudy
3:53 PM 41.0 °F 30.7 °F 23.0 °F 49% 29.80 in 10.0 mi WSW 25.3 mph 34.5 mph N/A   Partly Cloudy
4:53 PM 39.9 °F 29.5 °F 23.0 °F 51% 29.83 in 10.0 mi WSW 24.2 mph 33.4 mph N/A   Clear
5:53 PM 39.0 °F 28.3 °F 21.9 °F 50% 29.86 in 10.0 mi WSW 24.2 mph 33.4 mph N/A   Clear
6:53 PM 37.9 °F 27.9 °F 19.0 °F 47% 29.89 in 10.0 mi WSW 19.6 mph 28.8 mph N/A   Clear
7:53 PM 37.0 °F 28.1 °F 18.0 °F 46% 29.92 in 10.0 mi WSW 15.0 mph 26.5 mph N/A   Clear
8:53 PM 35.1 °F 25.5 °F 19.9 °F 54% 29.93 in 10.0 mi SW 15.0 mph - N/A   Clear
9:53 PM 34.0 °F 24.6 °F 19.9 °F 56% 29.94 in 10.0 mi SW 13.8 mph - N/A   Clear
10:53 PM 35.1 °F 25.9 °F 19.0 °F 52% 29.95 in 10.0 mi SW 13.8 mph - N/A   Clear
11:53 PM 32.0 °F 23.0 °F 21.0 °F 64% 29.93 in 10.0 mi SSW 11.5 mph - N/A   Clear